Regional Weather Roundup
Issued by NWS

Home | Current Version | Previous Version | Text Only | Print | Product List | Glossary Off
Versions: 1 2 3 4 5 6 7 8 9 10 11 12 13 14 15 16 17 18 19 20 21 22 23 24 25 26 27 28 29 30 31

000
ASUS43 KDMX 291507
RWRIA

WEATHER ROUNDUP FOR IOWA
NATIONAL WEATHER SERVICE DES MOINES IA
1000 AM CDT WED OCT 29 2014

NOTE: "FAIR" INDICATES FEW OR NO CLOUDS BELOW 12,000 FEET WITH NO
SIGNIFICANT WEATHER AND/OR OBSTRUCTIONS TO VISIBILITY.

* - THESE STATIONS ARE NOT NWS STATIONS...THUS NOT UNDER NWS
QUALITY CONTROL.  THEY ALSO DO NOT REPORT WEATHER SUCH
AS PRECIPITATION OR FOG.

IAZ001>003-012>014-020>022-031>034-043>046-291600-
   NORTHWEST IOWA

CITY           SKY/WX    TMP DP  RH WIND       PRES   REMARKS
CARROLL *      MOSUNNY   43  34  70 NW12      30.21S
CHEROKEE *     SUNNY     43  34  70 W8        30.20S
DENISON *      SUNNY     39  36  87 CALM      30.21S
LE MARS *      SUNNY     37  32  81 CALM      30.22S
ORANGE CITY *  SUNNY     43  32  65 NW6       30.20R
SHELDON *      SUNNY     41  32  70 N7        30.19R
SIOUX CITY     SUNNY     39  32  76 VRB5      30.24R
SPENCER        SUNNY     42  32  67 NW8       30.19S
STORM LAKE *   CLOUDY    43  32  65 NW7       30.20S
$$

IAZ055>058-069>071-079>083-090>094-291600-
   SOUTHWEST IOWA

CITY           SKY/WX    TMP DP  RH WIND       PRES   REMARKS
ATLANTIC *     SUNNY     41  34  75 NW7       30.24R
AUDUBON *      SUNNY     39  32  75 NW3       30.23R
CLARINDA *     SUNNY     43  34  70 NW6       30.27S
COUNCIL BLFS * SUNNY     41  34  75 CALM      30.24R
CRESTON *      SUNNY     39  36  87 NW8       30.23S WCI  34
HARLAN  *      SUNNY     41  36  81 NW8       30.27R
LAMONI         SUNNY     43  35  73 NW10      30.23R
RED OAK *      SUNNY     41  36  81 VRB5      30.26R
SHENANDOAH *   SUNNY     43  36  75 NW7       30.27R
$$

IAZ047>049-059>061-072>074-084-291600-
   CENTRAL IOWA

CITY           SKY/WX    TMP DP  RH WIND       PRES   REMARKS
AMES           CLOUDY    42  31  64 NW14      30.21R
ANKENY *       CLOUDY    45  32  61 NW12G23   30.21R
CHARITON *     SUNNY     45  34  65 NW8       30.21R
DES MOINES     CLOUDY    46  31  55 N10       30.21R
GRINNELL*      MOSUNNY   43  34  70 NW13G18   30.19R
KNOXVILLE *    MOSUNNY   45  32  61 NW15      30.19R
MARSHALLTOWN   CLOUDY    41  33  73 NW12      30.18R
PELLA *        SUNNY     45  34  65 NW17      30.21R
PERRY *        CLOUDY    45  34  65 NW7       30.21S
$$

IAZ004>006-015-016-023>025-035-036-291600-
   NORTH CENTRAL IOWA

CITY           SKY/WX    TMP DP  RH WIND       PRES   REMARKS
ALGONA *       CLOUDY    41  32  70 NW12G17   30.19S
CLARION *      CLOUDY    41  34  75 NW10      30.19R
ESTHERVILLE    CLOUDY    38  30  73 NW12      30.19R WCI  30
FORT DODGE *   CLOUDY    41  30  65 N7        30.20S
MASON CITY     MOSUNNY   38  29  70 NW16G29   30.18R WCI  29
FOREST CITY *  CLOUDY    37  32  81 NW18      30.18R WCI  27
IOWA FALLS *   CLOUDY    41  32  70 NW9       30.19R
$$

IAZ007>011-017>019-026>030-037>042-050>054-066-291600-
   NORTHEAST IOWA

CITY           SKY/WX    TMP DP  RH WIND       PRES   REMARKS
CEDAR RAPIDS   MOSUNNY   42  32  67 NW14      30.15R
CHARLES CITY * MOSUNNY   39  30  70 NW15      30.16R WCI  31
CLINTON *      MOSUNNY   45  30  57 NW14      30.15R
DECORAH *      CLOUDY    39  32  75 NW7G14    30.12R WCI  34
DUBUQUE        CLOUDY    41  32  70 NW13      30.11R
MONTICELLO *   SUNNY     43  32  65 NW16G22   30.12S
OELWEIN *      CLOUDY    39  30  70 NW14G24   30.15R WCI  31
WATERLOO       SUNNY     41  30  65 NW14      30.16R
$$

IAZ064-065-067-068-078-291600-
   EAST CENTRAL IOWA

CITY           SKY/WX    TMP DP  RH WIND       PRES   REMARKS
DAVENPORT      CLOUDY    45  31  58 NW14      30.13R
IOWA CITY      MOSUNNY   44  33  65 NW20G29   30.17R
MT. PLEASANT * SUNNY     45  32  61 NW14G22   30.18R
MUSCATINE *    MOSUNNY   46  32  57 NW20      30.16R
QUAD CITIES    PTSUNNY   45  33  63 NW10      30.13R
$$

IAZ062-063-075>077-085>089-095>099-291600-
   SOUTHEAST IOWA

CITY           SKY/WX    TMP DP  RH WIND       PRES   REMARKS
BURLINGTON     MOSUNNY   46  36  68 NW9       30.16S
FAIRFIELD *    SUNNY     45  32  61 NW13G20   30.18R
FORT MADISON * MOSUNNY   48  37  66 NW8       30.18S
KEOKUK *       PTSUNNY   46  36  66 NW13G18   30.18R
OSKALOOSA *      N/A     45  34  65 NW15      30.19S
CENTERVILLE *  SUNNY     45  36  70 W9        30.22R
OTTUMWA        SUNNY     45  34  65 NW14      30.19R
WASHINGTON *   SUNNY     46  34  61 NW17      30.17R
$$

ABBREVIATIONS USED IN REMARKS
   TC - TEMPERATURES IN CELSIUS
  WCI - WIND CHILL INDEX
   HX - HEAT INDEX
  VSB - VISIBILITY
$$




USA.gov is the U.S. government's official web portal to all federal, state and local government web resources and services.